Location: Bullenkuhlen
(53.7689°N, 9.7495°E)
Time: 23:17:38
(UTC+00:00)

FALCON 9 DEB - Pass Details

Date: 09 April 2020
Orbit: 429 x 442 km, 53.0° (Epoch: 29 May)

Event Time Altitude Azimuth Distance (km) Brightness Sun altitude
Rises 19:27:59 0° 226° (SW) 2,426 7.1 -11.1°
Reaches altitude 10° 19:30:13 10° 216° (SW) 1,558 6.0 -11.4°
Maximum altitude 19:33:23 32° 152° (SSE) 778 3.9 -11.8°
Enters shadow 19:35:21 18° 99° (E) 1,147 4.7 -12.1°
